SCP
0 0 0 0 0 0 0 0 0 0 0 0 0 0 0 0 0 0 0 0 0 -0 -0 -0 -0 -0 -0 -0 -1 -1 -1 -0 -0 -0 -0 -0 -0 -0 0 0 0 0 0 0 0 0 0 0 0
0 0 0 0 0 0 0 0 0 0 0 0 0 0 0 0 0 0 0 0 0 0 0 -0 -0 -0 -0 -0 -0 -0 -0 -0 -0 -0 -0 -0 -0 0 0 0 0 0 0 0 0 0 0 0 0
0 0 0 0 0 0 0 0 0 0 0 0 0 0 0 0 0 0 0 0 0 0 0 0 0 0 -0 -0 0 -0 -0 -0 -0 -0 -0 -0 0 0 0 0 0 0 0 -0 -0 0 0 0 0
0 0 0 0 0 0 0 0 0 0 0 0 0 0 0 0 0 0 0 0 0 0 0 0 0 0 0 0 0 0 0 0 -0 -0 -0 -0 0 0 0 0 0 0 -0 -0 -0 0 0 0 0
0 0 0 0 0 0 0 0 0 0 0 0 0 0 0 0 0 0 0 0 0 0 0 0 1 1 0 0 0 0 0 0 0 -0 -0 0 0 0 0 -0 -0 -0 -0 -0 0 0 0 0 0
0 0 0 0 0 0 0 0 0 0 0 0 0 0 0 0 0 0 0 -0 -0 0 0 1 1 1 1 1 0 0 0 0 0 0 -0 -0 -0 0 0 -0 -0 -0 -0 -0 0 0 0 0 0
0 0 0 0 0 0 0 0 0 0 0 0 0 0 0 0 0 0 0 0 0 0 0 1 0 1 1 1 1 0 0 0 0 0 -0 -0 -0 -0 0 0 0 0 0 0 0 0 0 0 0
0 0 0 0 0 0 0 0 0 0 0 0 0 0 0 0 0 0 0 0 0 0 0 0 0 0 0 0 1 1 0 0 0 0 0 0 -0 -0 -0 0 -0 0 0 0 0 0 0 0 0
0 0 0 0 0 0 0 0 0 0 0 0 0 0 0 0 0 0 0 0 0 0 0 0 1 0 0 0 0 1 0 0 0 0 0 0 0 0 0 0 0 0 0 0 0 0 0 0 0
0 0 0 0 0 0 0 0 0 0 0 0 0 0 0 0 0 0 0 0 0 0 0 0 1 1 1 0 1 0 0 0 0 0 0 0 0 0 0 0 0 0 0 0 0 0 0 -0 -0
0 0 0 0 0 0 0 0 0 0 0 0 0 0 0 0 0 0 0 0 0 0 0 0 1 1 1 1 1 1 0 0 0 0 0 0 0 0 0 0 0 0 0 0 0 0 0 0 0
0 0 0 0 0 0 0 0 0 0 0 0 0 0 0 0 0 0 0 0 0 0 0 0 1 1 1 1 1 1 0 1 0 0 0 1 1 1 0 0 0 0 0 0 0 0 0 0 0
0 0 0 0 0 0 0 0 0 0 0 0 0 0 0 0 0 0 0 0 0 0 1 0 1 1 2 1 1 1 1 1 1 1 1 1 1 1 1 1 0 0 0 0 0 0 0 0 0
0 0 0 0 0 0 0 0 0 0 0 0 0 0 0 0 0 0 0 0 0 1 0 1 1 1 1 1 1 1 2 2 2 1 1 1 2 2 1 1 1 1 0 0 0 0 0 0 0
0 0 0 0 0 0 0 0 0 0 0 0 0 0 0 0 0 0 0 0 0 0 0 0 1 1 1 1 1 2 1 1 2 2 2 3 3 3 2 1 1 1 1 1 0 0 0 0 0
0 0 0 0 0 0 0 0 0 0 0 0 0 0 0 0 0 0 0 0 0 0 0 1 1 1 1 1 1 2 1 2 2 4 4 1 2 2 2 2 2 2 2 1 0 0 0 0 0
0 0 0 0 0 0 0 0 0 0 0 0 0 0 0 0 0 0 0 0 0 0 0 1 1 1 1 2 2 1 2 2 2 3 3 2 2 2 2 3 5 5 2 1 1 1 1 1 1
0 0 0 0 0 0 0 0 0 0 0 0 0 0 0 0 0 0 0 0 0 0 0 0 1 2 2 3 3 2 2 2 2 2 2 2 3 2 3 5 7 6 3 1 1 1 2 2 1
0 0 0 0 0 0 0 0 0 0 0 0 0 0 0 0 0 0 0 0 0 0 0 0 0 2 2 3 4 3 3 3 3 2 2 2 2 2 3 3 3 3 3 3 6 5 5 3 3
0 0 0 0 0 0 0 0 0 0 0 0 0 0 0 0 0 0 0 0 0 0 0 0 0 0 2 3 3 3 3 2 3 3 3 2 3 3 3 2 3 3 3 5 7 11 4 6 8
0 0 0 0 0 0 0 0 0 0 0 0 0 0 0 0 0 0 0 0 0 0 0 0 0 1 1 2 2 3 4 5 4 4 4 3 3 3 3 3 3 4 5 5 4 4 4 2 2
0 0 0 0 0 0 0 0 0 0 0 0 0 0 0 0 0 0 0 0 0 0 0 0 0 0 0 1 2 4 4 3 3 4 4 3 3 4 4 3 4 6 5 5 4 3 3 1 1
0 0 0 0 0 0 0 0 0 0 0 0 0 0 0 0 0 0 0 0 0 0 0 0 0 0 1 1 2 2 3 2 3 3 5 5 6 5 4 4 4 5 4 5 5 5 5 2 1
0 0 0 0 0 0 0 0 0 0 0 0 0 0 0 0 0 0 0 0 0 0 0 0 0 0 0 1 1 2 3 3 2 3 5 7 6 8 6 5 5 5 4 4 5 5 5 3 3
0 0 0 0 0 0 0 0 0 0 0 0 0 0 0 0 0 0 0 0 0 0 0 0 0 0 0 0 1 1 2 4 5 5 5 7 6 7 6 6 7 6 5 5 5 5 4 4 3
0 0 0 0 0 0 0 0 0 0 0 0 0 0 0 0 0 0 0 0 0 0 0 0 0 0 0 0 0 1 1 2 3 4 5 5 6 7 5 6 7 6 6 6 6 5 4 5 3
0 0 0 0 0 0 0 0 0 0 0 0 0 0 0 0 0 0 0 0 0 0 0 0 0 0 0 0 0 1 1 2 4 7 7 6 9 7 4 5 6 5 5 5 5 6 6 4 3
0 0 0 0 0 0 0 0 0 0 0 0 0 0 0 0 0 0 0 0 0 0 0 0 0 0 0 0 0 1 2 3 5 8 8 5 5 6 3 4 4 4 3 3 3 4 4 5 4
0 0 0 0 0 0 0 0 0 0 0 0 0 0 0 0 0 0 0 0 0 0 0 0 0 0 0 0 0 0 1 2 3 3 3 3 2 1 1 1 0 1 1 2 3 3 2 2 3
0 0 0 0 0 0 0 0 0 0 0 0 0 0 0 0 0 0 0 0 0 0 0 0 0 0 0 0 0 1 1 1 1 1 2 3 3 2 1 1 1 1 1 1 2 2 1 1 1
Wind_Speed_500mb
21 24 20 11 14 12 25 10 8 8 12 8 4 11 10 14 14 6 14 26 30 38 41 42 42 46 45 44 42 42 41 44 40 33 27 27 29 29 28 27 26 24 22 20 18 16 15 15 15
22 18 12 11 15 20 19 5 15 1 4 2 6 5 8 9 8 13 20 24 29 37 40 45 45 44 43 41 36 40 44 48 42 34 28 28 29 29 28 27 25 23 22 20 18 16 15 14 13
19 11 19 8 16 22 5 10 1 10 4 5 7 3 3 8 8 10 11 26 34 36 40 44 46 46 43 40 33 38 48 51 45 36 29 29 29 29 28 27 25 23 21 18 16 14 12 11 11
7 11 12 17 21 8 8 7 4 1 6 5 5 10 7 5 6 7 14 23 32 36 39 41 45 45 43 40 35 39 51 50 46 39 32 31 30 28 27 26 24 22 19 17 14 12 9 8 8
7 11 19 20 24 7 10 5 6 4 2 4 9 12 9 11 9 13 21 24 31 36 37 41 45 45 43 41 38 39 50 50 47 41 35 35 33 30 27 25 22 20 17 15 13 10 8 6 5
16 15 19 27 29 16 16 12 15 10 3 4 3 8 10 12 10 13 21 23 29 36 38 39 44 46 45 43 41 41 48 51 49 44 39 37 35 31 28 24 21 19 16 14 12 9 8 6 6
23 16 28 33 27 28 19 11 20 11 12 1 12 10 10 14 9 11 18 21 27 31 34 37 46 47 45 43 42 43 48 52 51 46 42 39 37 34 30 26 22 19 17 15 11 9 8 8 9
18 12 23 21 25 36 15 20 8 18 12 13 6 9 11 15 9 11 17 22 27 32 34 34 44 49 49 47 43 42 46 51 52 49 46 42 40 36 33 29 26 22 18 15 12 11 10 11 12
16 15 22 34 29 22 10 17 9 9 21 15 14 13 10 20 8 15 23 24 28 33 37 35 38 41 45 43 46 43 44 48 53 52 49 44 40 36 34 32 30 25 22 19 15 14 14 16 17
24 21 25 6 15 13 8 13 18 15 17 22 20 19 17 16 10 20 27 27 32 35 38 38 40 42 43 41 45 49 48 51 55 55 53 48 40 33 28 30 31 28 25 22 17 15 16 17 11
23 27 16 15 15 14 17 22 24 20 23 17 19 20 18 15 12 20 32 34 30 32 35 38 41 44 44 43 41 48 43 48 55 57 56 52 43 41 40 28 28 30 26 18 18 15 12 12 12
19 31 22 16 16 22 22 20 21 25 27 20 13 17 21 16 12 16 29 37 35 33 34 36 40 45 48 44 45 44 44 44 44 50 56 51 54 49 37 30 26 29 20 19 18 14 17 14 11
27 19 20 23 23 23 23 24 26 20 22 20 16 14 12 12 14 14 20 32 36 37 36 36 41 45 47 55 47 49 50 48 45 44 53 54 47 42 48 37 31 26 23 21 17 16 16 16 15
13 19 20 19 26 21 25 29 14 22 18 21 15 13 13 15 16 18 19 22 36 39 37 36 42 46 46 54 57 52 55 52 54 50 53 66 58 52 43 47 42 37 28 23 23 20 19 19 22
11 20 23 30 31 24 21 31 29 30 19 25 24 21 19 20 22 25 25 24 24 39 40 44 44 45 46 51 58 58 52 57 52 55 55 68 69 60 51 42 41 41 40 38 36 36 33 27 22
17 13 24 13 8 15 17 27 12 10 20 21 19 18 16 18 21 24 30 34 28 29 38 44 44 46 50 51 55 57 51 53 55 63 64 78 56 51 51 47 45 46 46 43 41 36 30 20 21
21 25 21 16 6 14 20 16 10 13 17 16 21 21 20 20 20 21 24 34 47 43 39 36 43 48 52 54 51 50 52 58 52 56 62 66 60 71 75 59 57 50 51 51 45 37 33 18 18
17 22 20 26 11 12 20 26 25 27 28 29 30 25 26 26 26 24 21 28 34 56 61 58 45 48 52 51 54 45 47 51 52 56 55 61 76 82 76 64 66 65 63 54 48 43 30 25 19
16 21 26 23 17 21 29 29 26 30 32 34 34 35 33 34 31 29 25 21 22 26 36 48 56 59 56 46 46 47 52 50 52 56 60 61 72 70 73 49 61 70 60 65 65 46 37 21 18
24 29 30 25 22 18 30 34 30 26 38 39 39 40 40 38 37 34 34 33 29 34 37 35 39 49 65 52 51 51 48 49 50 49 51 59 68 73 75 76 60 61 57 63 53 56 37 23 23
30 32 28 26 26 25 33 40 40 37 43 35 42 47 44 43 37 33 29 29 30 30 37 45 48 45 45 62 58 50 47 45 51 53 55 64 70 71 72 69 50 52 51 46 49 55 57 54 51
32 25 25 30 29 27 20 31 35 34 33 29 45 45 37 32 29 27 31 33 34 32 30 35 46 54 51 49 48 61 63 63 61 58 58 59 67 72 71 68 63 69 60 56 52 61 69 57 62
28 17 20 24 29 34 36 26 29 35 23 29 26 32 23 11 13 19 24 31 36 36 35 34 40 42 44 48 54 50 62 65 66 63 60 61 60 74 69 62 61 59 63 52 61 55 67 65 76
16 22 32 33 28 33 38 38 31 26 26 28 22 19 1 11 15 18 23 30 36 37 36 32 34 45 48 49 49 54 61 66 62 67 65 62 62 61 70 62 66 66 62 61 54 59 73 75 56
26 26 25 31 28 32 34 26 22 26 30 26 23 14 4 11 16 20 23 25 26 25 26 29 31 38 40 48 52 54 59 64 74 72 72 65 61 58 55 63 64 57 60 56 59 59 62 59 55
32 23 24 41 33 38 42 42 23 6 6 9 5 13 13 16 19 20 24 28 28 28 30 31 31 33 35 43 49 54 63 59 64 69 71 67 68 59 53 61 61 62 51 55 55 54 54 45 45
23 30 27 37 42 40 38 49 36 29 27 17 15 9 14 23 27 29 30 29 32 32 32 33 33 33 31 33 43 51 49 49 58 64 62 66 57 48 49 53 55 59 61 59 53 55 50 49 51
29 28 20 17 17 33 23 22 16 9 9 8 11 9 18 24 34 41 44 44 38 33 34 32 30 30 30 30 27 24 32 39 49 54 54 54 58 48 44 41 54 61 61 61 60 51 49 51 55
23 26 28 24 28 22 34 23 10 10 4 6 9 15 25 35 39 42 43 41 42 39 34 29 28 28 26 26 27 24 22 33 33 40 47 51 47 45 49 53 50 56 54 48 47 46 46 47 48
30 35 34 14 22 22 24 26 29 9 10 7 20 33 41 37 39 39 35 34 33 32 33 34 29 25 23 24 21 21 23 19 21 23 27 31 40 38 32 26 38 34 32 37 40 40 41 42 40
Wind_Direction_500mb
315 320 323 276 240 237 236 186 340 177 178 77 54 295 346 354 347 18 134 150 160 163 174 177 177 177 179 179 180 185 190 183 175 168 161 161 160 156 155 156 153 152 150 149 152 152 147 139 132
303 318 284 267 250 219 213 74 201 31 26 237 198 223 228 86 60 98 133 164 161 168 178 179 181 182 181 182 182 186 191 185 180 175 172 171 168 162 161 158 155 156 155 156 158 156 152 148 144
298 305 276 268 246 248 219 170 302 327 135 181 184 297 134 104 106 129 158 167 161 169 179 184 184 186 186 184 185 187 190 186 184 183 182 180 175 170 165 162 162 163 162 165 162 158 154 153 158
265 249 229 247 238 261 305 137 347 44 108 30 15 150 136 140 120 149 167 164 166 168 175 188 186 190 189 189 189 188 190 190 189 189 188 185 182 178 174 172 172 173 173 172 170 163 163 166 174
229 242 250 242 244 226 245 243 314 273 303 6 324 112 122 123 105 136 162 168 170 171 176 189 190 193 194 193 195 195 195 196 197 198 197 189 185 183 183 184 183 183 183 183 181 178 182 193 209
216 251 232 233 232 217 235 237 278 258 286 316 327 303 107 114 93 133 160 170 174 177 178 193 194 195 198 199 198 201 203 203 203 205 204 196 192 189 190 194 193 192 194 198 195 197 206 221 240
246 233 244 248 237 244 239 241 252 278 266 65 313 273 124 108 31 165 167 175 177 181 179 190 195 198 202 206 205 203 205 208 209 209 207 201 199 197 197 198 202 201 202 208 212 217 232 244 256
227 244 245 237 238 248 220 245 244 255 276 299 257 200 176 330 300 205 184 179 181 185 186 189 195 200 203 207 207 207 207 207 208 207 205 205 206 204 205 202 204 205 209 218 225 237 251 259 267
206 232 232 229 234 245 214 244 182 260 266 269 268 259 291 321 314 195 188 190 188 192 193 193 195 195 200 205 208 206 207 207 205 205 205 204 210 214 215 212 209 209 213 219 227 247 262 270 275
213 228 240 248 243 239 199 270 292 280 247 261 250 261 286 306 279 223 206 202 198 197 197 197 197 199 197 200 206 206 207 206 205 206 207 205 207 211 209 223 219 221 224 230 236 251 270 280 279
209 241 232 218 238 240 260 262 255 254 256 238 262 263 269 285 256 237 223 221 219 206 205 202 205 204 200 202 204 204 205 207 210 210 211 209 209 217 222 226 229 233 241 245 265 271 277 261 254
229 237 247 252 249 252 251 262 254 242 255 255 277 280 274 267 254 236 229 228 224 217 213 210 212 214 209 206 207 206 204 207 210 212 215 210 215 217 204 214 218 226 226 237 255 254 242 248 258
230 236 235 243 253 254 264 250 260 252 250 245 277 283 249 255 277 265 255 237 230 231 220 217 212 221 216 208 211 208 209 210 212 214 217 213 216 222 225 217 211 220 225 236 248 260 256 263 269
189 244 242 241 241 236 249 253 222 235 210 246 253 238 240 256 267 271 270 264 234 232 229 226 224 230 228 223 214 218 219 216 214 215 217 220 220 223 223 231 236 238 238 237 244 247 254 261 269
229 253 238 241 239 237 250 257 223 245 239 252 250 250 253 254 264 266 265 271 253 241 238 240 237 238 235 230 226 221 221 219 221 219 222 224 224 226 229 234 241 245 245 249 253 262 264 264 266
237 245 251 152 222 220 224 259 207 237 228 227 239 243 245 250 255 263 266 263 260 252 241 239 237 232 232 232 231 224 218 221 222 219 248 234 233 242 246 244 249 255 257 251 252 250 248 254 261
208 257 215 246 224 253 223 267 153 194 219 244 248 248 254 261 260 262 272 264 248 254 244 240 235 232 235 237 227 226 224 224 224 224 225 232 230 218 234 237 239 250 244 245 243 246 244 238 247
259 222 238 254 175 237 260 255 257 259 258 253 250 258 264 266 263 264 268 274 265 251 249 245 239 243 238 233 234 228 227 229 225 228 230 227 221 228 234 228 228 226 236 244 248 246 240 217 220
269 263 261 261 263 263 264 265 265 272 264 256 253 258 267 269 269 262 263 263 256 263 265 264 259 246 245 233 228 230 231 232 232 231 233 229 226 225 236 227 239 237 245 242 247 225 218 224 240
241 252 256 270 268 269 271 270 269 260 264 260 262 260 262 266 268 266 270 266 273 283 277 272 271 260 249 239 239 234 235 237 240 237 233 230 232 234 232 237 239 242 237 223 216 218 202 207 218
240 253 264 266 284 268 266 266 257 250 242 257 259 258 262 266 272 269 278 272 282 280 275 263 257 259 257 249 246 241 234 236 235 234 234 238 235 232 232 234 229 224 211 215 231 235 234 239 239
253 234 258 265 274 273 290 286 281 275 266 245 256 259 259 259 273 280 282 283 285 279 282 277 269 258 258 257 243 235 236 240 239 240 238 238 234 224 224 227 228 227 230 221 237 246 249 255 249
261 291 259 272 273 281 268 263 267 260 255 251 248 255 269 320 291 293 302 300 294 289 285 276 267 262 256 257 255 244 244 244 244 243 240 240 230 220 220 222 223 227 231 232 230 235 241 253 255
264 265 258 265 267 262 269 266 271 266 270 279 258 254 273 305 302 311 313 316 306 290 281 282 274 268 263 262 255 258 256 253 245 242 238 230 223 221 223 224 228 237 238 231 234 241 247 257 250
233 262 270 262 247 256 257 265 289 309 295 275 273 313 304 309 315 324 327 329 332 328 310 297 292 282 274 268 264 258 257 258 253 246 238 229 229 221 222 223 226 227 233 233 243 245 249 251 244
271 252 267 281 286 290 294 276 258 118 305 346 312 306 299 320 329 330 330 328 322 322 327 321 310 305 294 283 275 267 262 254 251 245 235 235 228 224 217 219 223 231 229 234 237 243 245 235 233
268 257 275 287 273 272 273 269 254 243 227 216 233 257 309 317 321 324 323 321 320 320 316 319 317 311 307 298 287 276 267 254 243 238 236 228 218 212 206 216 222 230 236 236 237 239 239 241 243
257 280 270 250 278 273 264 274 273 207 279 202 227 296 310 318 324 324 322 325 323 322 321 314 315 310 304 305 299 290 264 245 238 229 222 213 206 209 223 228 233 230 236 241 242 238 241 237 240
257 243 260 284 268 266 277 271 39 320 161 183 277 305 314 322 321 322 319 319 321 315 320 329 329 319 319 310 297 291 278 243 224 225 219 218 224 219 233 229 245 237 233 234 234 234 232 239 239
265 271 274 250 255 254 279 273 300 183 183 244 304 314 316 314 319 322 315 305 305 313 316 320 330 335 327 329 313 286 270 246 223 212 198 185 189 194 202 206 212 216 219 226 228 232 233 235 236
Wind_Speed_850mb
21 24 20 11 14 12 25 10 8 8 12 8 4 11 10 14 14 6 14 26 30 38 41 42 42 46 45 44 42 42 41 44 40 33 27 27 29 29 28 27 26 24 22 20 18 16 15 15 15
22 18 12 11 15 20 19 5 15 1 4 2 6 5 8 9 8 13 20 24 29 37 40 45 45 44 43 41 36 40 44 48 42 34 28 28 29 29 28 27 25 23 22 20 18 16 15 14 13
19 11 19 8 16 22 5 10 1 10 4 5 7 3 3 8 8 10 11 26 34 36 40 44 46 46 43 40 33 38 48 51 45 36 29 29 29 29 28 27 25 23 21 18 16 14 12 11 11
7 11 12 17 21 8 8 7 4 1 6 5 5 10 7 5 6 7 14 23 32 36 39 41 45 45 43 40 35 39 51 50 46 39 32 31 30 28 27 26 24 22 19 17 14 12 9 8 8
7 11 19 20 24 7 10 5 6 4 2 4 9 12 9 11 9 13 21 24 31 36 37 41 45 45 43 41 38 39 50 50 47 41 35 35 33 30 27 25 22 20 17 15 13 10 8 6 5
16 15 19 27 29 16 16 12 15 10 3 4 3 8 10 12 10 13 21 23 29 36 38 39 44 46 45 43 41 41 48 51 49 44 39 37 35 31 28 24 21 19 16 14 12 9 8 6 6
23 16 28 33 27 28 19 11 20 11 12 1 12 10 10 14 9 11 18 21 27 31 34 37 46 47 45 43 42 43 48 52 51 46 42 39 37 34 30 26 22 19 17 15 11 9 8 8 9
18 12 23 21 25 36 15 20 8 18 12 13 6 9 11 15 9 11 17 22 27 32 34 34 44 49 49 47 43 42 46 51 52 49 46 42 40 36 33 29 26 22 18 15 12 11 10 11 12
16 15 22 34 29 22 10 17 9 9 21 15 14 13 10 20 8 15 23 24 28 33 37 35 38 41 45 43 46 43 44 48 53 52 49 44 40 36 34 32 30 25 22 19 15 14 14 16 17
24 21 25 6 15 13 8 13 18 15 17 22 20 19 17 16 10 20 27 27 32 35 38 38 40 42 43 41 45 49 48 51 55 55 53 48 40 33 28 30 31 28 25 22 17 15 16 17 11
23 27 16 15 15 14 17 22 24 20 23 17 19 20 18 15 12 20 32 34 30 32 35 38 41 44 44 43 41 48 43 48 55 57 56 52 43 41 40 28 28 30 26 18 18 15 12 12 12
19 31 22 16 16 22 22 20 21 25 27 20 13 17 21 16 12 16 29 37 35 33 34 36 40 45 48 44 45 44 44 44 44 50 56 51 54 49 37 30 26 29 20 19 18 14 17 14 11
27 19 20 23 23 23 23 24 26 20 22 20 16 14 12 12 14 14 20 32 36 37 36 36 41 45 47 55 47 49 50 48 45 44 53 54 47 42 48 37 31 26 23 21 17 16 16 16 15
13 19 20 19 26 21 25 29 14 22 18 21 15 13 13 15 16 18 19 22 36 39 37 36 42 46 46 54 57 52 55 52 54 50 53 66 58 52 43 47 42 37 28 23 23 20 19 19 22
11 20 23 30 31 24 21 31 29 30 19 25 24 21 19 20 22 25 25 24 24 39 40 44 44 45 46 51 58 58 52 57 52 55 55 68 69 60 51 42 41 41 40 38 36 36 33 27 22
17 13 24 13 8 15 17 27 12 10 20 21 19 18 16 18 21 24 30 34 28 29 38 44 44 46 50 51 55 57 51 53 55 63 64 78 56 51 51 47 45 46 46 43 41 36 30 20 21
21 25 21 16 6 14 20 16 10 13 17 16 21 21 20 20 20 21 24 34 47 43 39 36 43 48 52 54 51 50 52 58 52 56 62 66 60 71 75 59 57 50 51 51 45 37 33 18 18
17 22 20 26 11 12 20 26 25 27 28 29 30 25 26 26 26 24 21 28 34 56 61 58 45 48 52 51 54 45 47 51 52 56 55 61 76 82 76 64 66 65 63 54 48 43 30 25 19
16 21 26 23 17 21 29 29 26 30 32 34 34 35 33 34 31 29 25 21 22 26 36 48 56 59 56 46 46 47 52 50 52 56 60 61 72 70 73 49 61 70 60 65 65 46 37 21 18
24 29 30 25 22 18 30 34 30 26 38 39 39 40 40 38 37 34 34 33 29 34 37 35 39 49 65 52 51 51 48 49 50 49 51 59 68 73 75 76 60 61 57 63 53 56 37 23 23
30 32 28 26 26 25 33 40 40 37 43 35 42 47 44 43 37 33 29 29 30 30 37 45 48 45 45 62 58 50 47 45 51 53 55 64 70 71 72 69 50 52 51 46 49 55 57 54 51
32 25 25 30 29 27 20 31 35 34 33 29 45 45 37 32 29 27 31 33 34 32 30 35 46 54 51 49 48 61 63 63 61 58 58 59 67 72 71 68 63 69 60 56 52 61 69 57 62
28 17 20 24 29 34 36 26 29 35 23 29 26 32 23 11 13 19 24 31 36 36 35 34 40 42 44 48 54 50 62 65 66 63 60 61 60 74 69 62 61 59 63 52 61 55 67 65 76
16 22 32 33 28 33 38 38 31 26 26 28 22 19 1 11 15 18 23 30 36 37 36 32 34 45 48 49 49 54 61 66 62 67 65 62 62 61 70 62 66 66 62 61 54 59 73 75 56
26 26 25 31 28 32 34 26 22 26 30 26 23 14 4 11 16 20 23 25 26 25 26 29 31 38 40 48 52 54 59 64 74 72 72 65 61 58 55 63 64 57 60 56 59 59 62 59 55
32 23 24 41 33 38 42 42 23 6 6 9 5 13 13 16 19 20 24 28 28 28 30 31 31 33 35 43 49 54 63 59 64 69 71 67 68 59 53 61 61 62 51 55 55 54 54 45 45
23 30 27 37 42 40 38 49 36 29 27 17 15 9 14 23 27 29 30 29 32 32 32 33 33 33 31 33 43 51 49 49 58 64 62 66 57 48 49 53 55 59 61 59 53 55 50 49 51
29 28 20 17 17 33 23 22 16 9 9 8 11 9 18 24 34 41 44 44 38 33 34 32 30 30 30 30 27 24 32 39 49 54 54 54 58 48 44 41 54 61 61 61 60 51 49 51 55
23 26 28 24 28 22 34 23 10 10 4 6 9 15 25 35 39 42 43 41 42 39 34 29 28 28 26 26 27 24 22 33 33 40 47 51 47 45 49 53 50 56 54 48 47 46 46 47 48
30 35 34 14 22 22 24 26 29 9 10 7 20 33 41 37 39 39 35 34 33 32 33 34 29 25 23 24 21 21 23 19 21 23 27 31 40 38 32 26 38 34 32 37 40 40 41 42 40
Wind_Direction_850mb
315 320 323 276 240 237 236 186 340 177 178 77 54 295 346 354 347 18 134 150 160 163 174 177 177 177 179 179 180 185 190 183 175 168 161 161 160 156 155 156 153 152 150 149 152 152 147 139 132
303 318 284 267 250 219 213 74 201 31 26 237 198 223 228 86 60 98 133 164 161 168 178 179 181 182 181 182 182 186 191 185 180 175 172 171 168 162 161 158 155 156 155 156 158 156 152 148 144
298 305 276 268 246 248 219 170 302 327 135 181 184 297 134 104 106 129 158 167 161 169 179 184 184 186 186 184 185 187 190 186 184 183 182 180 175 170 165 162 162 163 162 165 162 158 154 153 158
265 249 229 247 238 261 305 137 347 44 108 30 15 150 136 140 120 149 167 164 166 168 175 188 186 190 189 189 189 188 190 190 189 189 188 185 182 178 174 172 172 173 173 172 170 163 163 166 174
229 242 250 242 244 226 245 243 314 273 303 6 324 112 122 123 105 136 162 168 170 171 176 189 190 193 194 193 195 195 195 196 197 198 197 189 185 183 183 184 183 183 183 183 181 178 182 193 209
216 251 232 233 232 217 235 237 278 258 286 316 327 303 107 114 93 133 160 170 174 177 178 193 194 195 198 199 198 201 203 203 203 205 204 196 192 189 190 194 193 192 194 198 195 197 206 221 240
246 233 244 248 237 244 239 241 252 278 266 65 313 273 124 108 31 165 167 175 177 181 179 190 195 198 202 206 205 203 205 208 209 209 207 201 199 197 197 198 202 201 202 208 212 217 232 244 256
227 244 245 237 238 248 220 245 244 255 276 299 257 200 176 330 300 205 184 179 181 185 186 189 195 200 203 207 207 207 207 207 208 207 205 205 206 204 205 202 204 205 209 218 225 237 251 259 267
206 232 232 229 234 245 214 244 182 260 266 269 268 259 291 321 314 195 188 190 188 192 193 193 195 195 200 205 208 206 207 207 205 205 205 204 210 214 215 212 209 209 213 219 227 247 262 270 275
213 228 240 248 243 239 199 270 292 280 247 261 250 261 286 306 279 223 206 202 198 197 197 197 197 199 197 200 206 206 207 206 205 206 207 205 207 211 209 223 219 221 224 230 236 251 270 280 279
209 241 232 218 238 240 260 262 255 254 256 238 262 263 269 285 256 237 223 221 219 206 205 202 205 204 200 202 204 204 205 207 210 210 211 209 209 217 222 226 229 233 241 245 265 271 277 261 254
229 237 247 252 249 252 251 262 254 242 255 255 277 280 274 267 254 236 229 228 224 217 213 210 212 214 209 206 207 206 204 207 210 212 215 210 215 217 204 214 218 226 226 237 255 254 242 248 258
230 236 235 243 253 254 264 250 260 252 250 245 277 283 249 255 277 265 255 237 230 231 220 217 212 221 216 208 211 208 209 210 212 214 217 213 216 222 225 217 211 220 225 236 248 260 256 263 269
189 244 242 241 241 236 249 253 222 235 210 246 253 238 240 256 267 271 270 264 234 232 229 226 224 230 228 223 214 218 219 216 214 215 217 220 220 223 223 231 236 238 238 237 244 247 254 261 269
229 253 238 241 239 237 250 257 223 245 239 252 250 250 253 254 264 266 265 271 253 241 238 240 237 238 235 230 226 221 221 219 221 219 222 224 224 226 229 234 241 245 245 249 253 262 264 264 266
237 245 251 152 222 220 224 259 207 237 228 227 239 243 245 250 255 263 266 263 260 252 241 239 237 232 232 232 231 224 218 221 222 219 248 234 233 242 246 244 249 255 257 251 252 250 248 254 261
208 257 215 246 224 253 223 267 153 194 219 244 248 248 254 261 260 262 272 264 248 254 244 240 235 232 235 237 227 226 224 224 224 224 225 232 230 218 234 237 239 250 244 245 243 246 244 238 247
259 222 238 254 175 237 260 255 257 259 258 253 250 258 264 266 263 264 268 274 265 251 249 245 239 243 238 233 234 228 227 229 225 228 230 227 221 228 234 228 228 226 236 244 248 246 240 217 220
269 263 261 261 263 263 264 265 265 272 264 256 253 258 267 269 269 262 263 263 256 263 265 264 259 246 245 233 228 230 231 232 232 231 233 229 226 225 236 227 239 237 245 242 247 225 218 224 240
241 252 256 270 268 269 271 270 269 260 264 260 262 260 262 266 268 266 270 266 273 283 277 272 271 260 249 239 239 234 235 237 240 237 233 230 232 234 232 237 239 242 237 223 216 218 202 207 218
240 253 264 266 284 268 266 266 257 250 242 257 259 258 262 266 272 269 278 272 282 280 275 263 257 259 257 249 246 241 234 236 235 234 234 238 235 232 232 234 229 224 211 215 231 235 234 239 239
253 234 258 265 274 273 290 286 281 275 266 245 256 259 259 259 273 280 282 283 285 279 282 277 269 258 258 257 243 235 236 240 239 240 238 238 234 224 224 227 228 227 230 221 237 246 249 255 249
261 291 259 272 273 281 268 263 267 260 255 251 248 255 269 320 291 293 302 300 294 289 285 276 267 262 256 257 255 244 244 244 244 243 240 240 230 220 220 222 223 227 231 232 230 235 241 253 255
264 265 258 265 267 262 269 266 271 266 270 279 258 254 273 305 302 311 313 316 306 290 281 282 274 268 263 262 255 258 256 253 245 242 238 230 223 221 223 224 228 237 238 231 234 241 247 257 250
233 262 270 262 247 256 257 265 289 309 295 275 273 313 304 309 315 324 327 329 332 328 310 297 292 282 274 268 264 258 257 258 253 246 238 229 229 221 222 223 226 227 233 233 243 245 249 251 244
271 252 267 281 286 290 294 276 258 118 305 346 312 306 299 320 329 330 330 328 322 322 327 321 310 305 294 283 275 267 262 254 251 245 235 235 228 224 217 219 223 231 229 234 237 243 245 235 233
268 257 275 287 273 272 273 269 254 243 227 216 233 257 309 317 321 324 323 321 320 320 316 319 317 311 307 298 287 276 267 254 243 238 236 228 218 212 206 216 222 230 236 236 237 239 239 241 243
257 280 270 250 278 273 264 274 273 207 279 202 227 296 310 318 324 324 322 325 323 322 321 314 315 310 304 305 299 290 264 245 238 229 222 213 206 209 223 228 233 230 236 241 242 238 241 237 240
257 243 260 284 268 266 277 271 39 320 161 183 277 305 314 322 321 322 319 319 321 315 320 329 329 319 319 310 297 291 278 243 224 225 219 218 224 219 233 229 245 237 233 234 234 234 232 239 239
265 271 274 250 255 254 279 273 300 183 183 244 304 314 316 314 319 322 315 305 305 313 316 320 330 335 327 329 313 286 270 246 223 212 198 185 189 194 202 206 212 216 219 226 228 232 233 235 236